Location: Harwich
(41.7160°N, 69.9939°W)
Time: 11:40:24
(UTC+01:00)

Altair - Visible Passes

Search period start: 31 January 2023 00:00
Search period end: 10 February 2023 00:00
Orbit: 1501 x 1683 km, 47.2° (Epoch: 30 January)

Date Brightness Start Highest point End Pass type
(mag) Time Alt. Az. Time Alt. Az. Time Alt. Az.
31 Jan 7.5 01:18:01 10° SW 01:27:26 60° SE 01:29:05 54° ESE visible
31 Jan 8.7 03:22:24 10° W 03:27:08 33° W 03:27:08 33° W visible
31 Jan 9.0 09:52:21 19° S 09:52:21 19° S 09:55:23 10° S visible
01 Feb 7.7 00:52:59 10° SW 01:02:16 55° SE 01:05:42 40° E visible
01 Feb 8.2 02:57:09 10° WSW 03:03:44 48° W 03:03:44 48° W visible
01 Feb 9.3 09:29:11 14° S 09:29:11 14° S 09:30:36 10° S visible
02 Feb 7.8 00:27:59 10° SSW 00:37:08 52° SE 00:42:16 29° E visible
02 Feb 7.7 02:31:54 10° WSW 02:40:18 68° WNW 02:40:18 68° WNW visible
02 Feb 9.7 04:37:35 10° WNW 04:38:21 13° WNW 04:38:21 13° WNW visible
03 Feb 7.9 00:03:01 10° SSW 00:12:00 48° SE 00:18:46 20° ENE visible
03 Feb 7.4 02:06:41 10° WSW 02:16:28 80° NNW 02:16:49 79° N visible
03 Feb 9.3 04:12:19 10° WNW 04:14:51 20° WNW 04:14:51 20° WNW visible
03 Feb 8.0 23:38:04 10° SSW 23:46:53 44° SE 23:55:14 13° ENE visible
04 Feb 7.5 01:41:28 10° WSW 01:51:13 83° NNW 01:53:16 62° NE visible
04 Feb 8.9 03:47:03 10° W 03:51:18 30° WNW 03:51:18 30° WNW visible
04 Feb 8.1 23:13:09 10° SSW 23:21:46 41° SE 23:30:42 10° ENE visible
05 Feb 7.5 01:16:16 10° WSW 01:25:58 86° NNW 01:29:40 46° ENE visible
05 Feb 8.5 03:21:47 10° W 03:27:42 41° WNW 03:27:42 41° WNW visible
06 Feb 7.5 00:51:05 10° WSW 01:00:44 90° NNW 01:06:03 33° ENE visible
06 Feb 8.0 02:56:31 10° W 03:04:04 53° NW 03:04:04 53° NW visible
06 Feb 9.8 05:01:57 10° WNW 05:02:07 11° WNW 05:02:07 11° WNW visible
07 Feb 7.5 00:25:55 10° WSW 00:35:31 87° SSE 00:42:22 24° ENE visible
07 Feb 7.7 02:31:16 10° W 02:40:24 63° NNW 02:40:24 63° NNW visible
07 Feb 9.5 04:36:43 10° WNW 04:38:26 17° WNW 04:38:26 17° WNW visible
08 Feb 7.6 00:00:46 10° WSW 00:10:19 83° SSE 00:18:40 16° ENE visible
08 Feb 7.6 02:06:00 10° W 02:15:41 65° N 02:16:42 62° NNE visible
08 Feb 9.1 04:11:29 10° WNW 04:14:43 24° WNW 04:14:43 24° WNW visible
08 Feb 7.6 23:35:38 10° SW 23:45:07 79° SSE 23:54:57 10° ENE visible
09 Feb 7.7 01:40:44 10° W 01:50:23 66° N 01:52:58 51° NE visible
09 Feb 8.7 03:46:16 10° WNW 03:51:00 33° WNW 03:51:00 33° WNW visible
